Theta_e
358 367 367 366 367 367 366 364 363 361 361 361 362 363 361 361 361 363 363 363 364 364 362 362 360 358 357 355 355 356 356 355 354 354 353 352 352 355 353 353 355 352 354
359 368 366 365 367 367 366 364 363 361 361 361 363 362 361 361 362 363 363 363 364 362 361 361 360 358 356 356 356 356 356 356 355 355 354 355 354 354 354 353 354 353 353
361 368 367 364 366 366 365 363 362 362 361 362 363 362 361 361 362 363 363 364 364 362 361 360 359 357 355 356 356 355 356 354 354 355 358 357 357 354 352 356 356 356 356
364 370 366 364 365 366 365 363 362 362 361 362 362 362 361 362 362 363 363 365 364 361 359 358 357 355 355 355 354 353 354 354 353 354 358 358 354 353 357 356 355 353 352
366 369 367 363 364 365 365 363 363 362 362 362 362 362 362 362 362 362 363 364 364 360 358 356 355 355 354 354 354 353 352 349 350 353 355 356 352 357 356 353 351 348 346
365 366 363 363 363 364 364 364 363 363 363 362 361 362 362 362 362 361 363 363 362 359 356 355 355 354 353 353 352 351 350 347 353 354 357 350 356 355 352 350 348 346 344
362 365 365 362 362 363 364 364 363 363 362 362 362 362 362 361 361 362 363 362 362 360 357 355 354 352 351 351 351 350 348 348 352 352 354 355 358 353 350 347 346 343 340
359 363 364 361 362 361 363 363 362 362 361 361 361 362 361 361 362 363 362 362 361 359 356 353 352 351 350 350 350 350 348 348 346 352 353 356 353 351 347 345 343 340 339
359 359 360 361 361 361 361 361 361 360 361 360 360 360 360 361 361 362 361 361 360 357 355 352 350 349 348 349 349 349 351 349 348 351 350 356 351 347 344 342 340 339 338
359 358 359 361 357 355 357 360 360 360 360 360 360 360 360 361 361 361 359 360 357 354 353 351 350 348 347 347 348 349 350 349 346 350 355 357 348 344 342 340 338 337 336
356 359 358 359 357 354 352 358 359 359 360 359 360 360 356 351 357 359 357 358 355 353 352 350 349 348 347 346 347 348 349 350 352 351 354 352 347 342 340 338 337 337 336
350 354 358 356 358 354 352 356 352 354 355 355 356 357 350 352 352 352 357 357 355 353 352 350 349 347 346 342 343 347 346 350 352 354 355 349 345 341 339 337 336 336 335
353 354 354 357 359 356 352 352 350 350 349 351 354 355 352 351 352 352 354 351 352 353 348 346 345 341 339 342 343 346 350 351 352 354 352 350 344 340 338 336 336 335 334
347 353 355 358 359 358 354 352 351 349 349 349 352 354 352 350 352 348 347 347 351 347 346 345 341 341 342 345 348 350 351 352 353 354 351 348 345 339 336 335 335 334 333
331 351 356 357 359 358 357 353 352 352 350 350 351 354 351 347 349 348 349 349 348 346 345 341 339 340 342 347 350 351 352 352 354 357 353 346 345 341 335 333 332 332 331
328 336 349 356 361 360 357 356 353 353 352 350 349 350 351 347 350 349 350 347 345 345 341 339 339 341 345 347 350 352 353 354 356 356 353 346 344 339 335 331 330 330 330
328 337 346 357 358 362 359 356 355 353 351 349 349 352 351 352 355 352 346 344 345 348 343 343 345 350 350 353 354 355 355 355 356 355 353 349 340 335 334 330 329 328 329
325 335 348 352 358 360 361 357 355 353 352 350 350 351 352 353 356 352 344 344 346 347 344 342 345 345 347 350 352 353 357 354 354 351 352 347 344 338 334 332 329 328 329
324 330 343 355 356 359 361 359 358 358 353 351 350 351 352 352 352 349 344 345 354 346 343 345 346 348 348 349 351 355 357 355 354 350 349 347 345 338 338 332 331 331 332
322 330 336 347 354 363 358 361 356 353 353 352 350 350 352 351 350 350 344 351 353 347 347 349 352 351 350 349 346 348 351 352 352 349 346 345 344 336 335 336 335 332 330
322 326 332 339 350 359 355 352 350 347 350 350 350 352 351 350 349 350 344 353 355 351 352 356 354 352 347 349 343 342 342 343 344 344 344 341 337 334 335 334 334 334 332
324 327 336 340 348 356 356 356 353 350 351 350 350 350 350 350 352 351 354 353 355 351 355 355 354 346 344 346 341 340 333 334 334 335 337 335 336 333 332 334 334 333 333
323 330 337 343 349 351 352 351 350 350 352 348 347 347 348 349 351 354 355 355 357 355 352 353 352 350 341 343 345 338 333 328 330 329 329 332 333 331 332 334 331 329 329
320 328 335 342 348 351 350 347 351 346 346 347 347 347 347 350 349 352 356 357 358 353 357 352 351 350 349 340 339 337 338 337 326 324 326 330 330 330 330 331 329 326 324
321 322 333 340 347 350 353 350 347 345 346 348 347 348 353 351 348 346 353 357 357 352 354 352 352 352 348 344 338 332 333 333 332 325 321 323 326 328 329 329 325 323 322
320 321 325 337 343 348 351 352 350 348 351 348 347 345 344 345 346 348 349 357 357 355 352 351 352 350 346 341 337 333 328 325 323 320 317 321 319 325 328 327 325 322 319
Wind_Speed
7 17 15 13 15 15 18 19 19 19 19 20 19 19 20 21 20 18 16 15 12 12 12 13 13 12 12 11 10 9 7 7 6 5 5 5 4 6 5 5 10 6 9
9 20 15 13 15 16 19 19 18 19 20 20 19 18 19 20 20 18 16 14 12 13 12 12 12 12 11 11 9 8 7 5 4 4 4 9 7 5 5 7 9 11 9
9 19 20 14 15 17 19 19 19 19 20 21 20 18 17 18 19 17 15 13 12 12 11 11 11 11 11 10 9 8 6 3 1 2 7 12 13 6 6 7 8 9 8
10 16 19 16 17 18 19 18 19 19 20 19 19 20 19 18 18 16 15 13 13 12 11 10 10 10 10 9 7 6 4 1 2 5 11 1 10 7 6 6 9 9 8
11 16 16 14 17 18 19 18 19 19 19 19 17 18 18 17 17 16 14 12 12 13 11 10 9 9 9 8 6 4 1 1 6 10 5 5 5 9 8 10 8 8 8
12 15 19 12 15 17 18 18 17 18 19 18 18 17 17 16 15 14 12 12 11 12 11 10 10 9 9 8 6 3 1 5 10 5 6 6 7 9 8 8 7 9 10
11 14 16 13 14 17 18 18 18 18 18 18 17 17 17 16 15 13 11 10 9 9 11 10 9 9 8 7 6 3 1 6 13 6 5 1 9 7 8 7 8 10 11
7 12 15 14 13 16 17 17 18 18 18 18 17 15 15 15 15 14 11 10 9 9 9 9 9 9 7 6 4 3 2 8 8 2 2 7 7 8 7 8 10 11 12
6 8 12 15 14 14 14 16 16 17 19 18 18 17 14 13 13 14 12 11 10 9 9 8 8 7 6 6 5 3 2 6 11 3 4 5 8 7 7 9 12 11 11
10 11 11 15 16 15 15 14 15 15 16 18 17 16 17 16 13 12 11 11 11 10 10 10 9 8 7 6 5 5 5 8 10 5 5 9 8 7 9 11 10 9 9
6 12 11 14 16 15 15 14 14 15 14 15 15 15 15 13 15 15 9 14 12 11 11 10 9 8 7 7 7 7 8 8 4 5 3 11 8 8 9 9 9 8 9
5 9 11 10 14 14 12 15 14 14 12 13 13 14 12 13 13 13 11 11 11 12 12 10 9 8 10 9 8 9 8 4 5 4 7 11 8 8 8 7 7 8 8
12 9 12 12 12 15 12 11 8 8 9 9 13 13 11 10 9 9 8 8 8 10 9 10 9 9 10 6 5 6 4 6 4 4 13 10 9 8 7 6 7 6 6
11 15 14 16 16 15 10 10 11 10 10 9 11 14 9 8 10 9 7 10 8 8 5 6 6 5 7 7 6 6 6 6 4 3 11 10 8 7 6 5 5 5 4
11 15 19 16 16 14 13 11 10 10 10 11 11 13 11 10 10 9 8 7 8 6 7 7 5 7 8 8 7 7 6 5 3 1 5 11 8 7 5 4 3 3 2
13 14 16 20 19 18 15 15 11 10 12 11 11 12 13 10 10 10 8 8 7 7 6 7 7 7 8 7 7 6 5 5 5 5 3 9 6 6 5 3 2 1 2
13 14 16 17 17 20 20 15 12 12 12 11 11 13 14 13 11 10 9 8 7 6 7 6 7 6 7 6 4 4 5 6 4 6 4 4 10 8 4 3 2 1 2
14 14 15 13 16 17 18 16 13 12 11 11 10 11 13 14 13 11 9 8 7 7 7 8 8 8 7 6 4 4 2 3 4 5 5 4 4 5 10 6 2 1 3
13 14 15 15 14 18 15 15 15 15 12 11 11 10 13 15 14 11 9 8 9 8 8 7 7 7 6 5 4 2 2 3 4 4 3 5 2 4 2 11 4 3 2
12 14 14 14 13 17 13 12 10 11 12 11 11 11 15 13 14 11 9 8 10 8 8 8 8 6 5 5 5 3 1 2 2 2 4 5 2 3 4 4 4 8 7
11 13 15 16 16 14 12 12 10 12 12 11 11 13 15 13 14 13 10 10 10 9 8 8 7 8 5 5 5 4 3 3 2 1 2 3 2 5 3 4 6 5 3
11 14 15 17 17 15 11 12 10 11 13 12 12 13 14 15 12 12 10 12 12 9 9 10 9 7 5 6 5 4 5 6 3 1 1 1 2 5 4 3 6 5 6
13 14 16 17 17 15 14 10 8 7 8 10 12 12 13 13 14 11 12 10 11 9 10 10 10 9 6 6 5 5 3 5 4 4 2 2 3 3 3 2 4 5 6
15 13 14 15 17 17 13 10 16 12 13 12 13 12 12 14 14 12 14 12 12 10 8 10 9 8 6 6 4 4 4 5 3 4 4 2 2 1 4 2 3 4 6
19 15 14 14 17 17 19 18 13 14 14 11 11 14 13 13 14 16 14 13 11 9 8 10 10 9 6 3 6 4 3 1 3 5 4 6 3 2 2 2 5 4 5
18 17 15 15 15 17 18 19 17 16 14 12 13 13 14 12 11 14 15 12 10 8 9 8 7 6 3 3 3 3 3 1 3 4 4 2 4 5 2 2 4 5 7
Wind_Direction
137 155 161 157 143 151 146 149 149 145 144 143 147 147 147 141 140 139 142 133 127 127 130 129 120 114 111 110 108 105 107 111 112 111 117 103 85 66 37 8 321 20 17
164 156 160 158 150 153 146 149 149 146 147 146 150 151 149 144 140 142 142 134 132 133 134 128 121 116 117 116 117 117 116 111 122 137 157 166 116 68 39 23 18 28 23
178 157 166 161 154 151 143 148 148 148 149 150 151 151 148 144 139 141 139 135 134 136 134 130 125 122 121 123 121 122 117 131 149 242 251 240 92 68 51 43 39 35 30
166 163 173 161 153 149 141 147 147 150 148 152 152 150 149 147 142 143 141 139 139 138 135 131 126 125 127 125 118 113 119 89 286 265 239 351 91 76 67 72 59 44 21
168 166 158 163 150 147 143 146 146 150 146 149 152 150 149 148 144 146 144 141 144 142 139 132 129 129 127 122 115 109 73 293 257 235 211 99 60 86 75 38 79 70 36
180 172 130 161 150 146 144 143 145 148 143 146 151 149 147 145 142 143 142 139 144 144 138 134 133 134 129 126 124 113 27 281 259 145 78 103 59 86 79 74 67 54 41
181 168 151 155 150 147 146 143 146 146 143 145 147 149 147 143 138 138 136 136 140 136 137 136 134 131 130 135 133 128 260 282 276 96 121 117 85 94 88 82 68 55 44
183 160 143 147 152 146 146 145 147 144 142 143 145 147 146 142 138 136 136 134 131 129 136 134 131 126 130 139 150 167 209 274 238 103 139 102 96 102 93 74 60 50 42
178 145 149 166 152 144 144 145 147 145 145 145 145 143 141 136 134 134 134 130 129 128 131 132 130 130 146 155 178 200 228 273 277 133 186 145 120 112 94 68 57 49 43
175 154 167 171 169 169 158 144 146 147 145 143 144 142 142 135 135 134 130 134 138 138 137 142 147 151 164 179 194 214 242 256 251 188 204 86 132 113 81 72 66 55 47
190 156 178 185 171 177 162 150 142 143 141 141 144 143 146 167 170 159 151 143 147 148 145 153 160 167 176 193 212 223 242 237 178 219 134 122 138 103 87 83 72 62 55
172 171 177 191 175 178 165 157 165 161 172 179 176 170 181 169 182 189 144 148 156 157 153 162 168 182 208 189 185 213 232 213 238 185 93 140 131 116 107 96 78 65 55
181 175 175 179 194 182 176 171 167 167 169 175 177 179 188 172 173 185 164 173 177 184 181 183 179 207 205 219 205 216 238 230 217 215 110 144 140 129 116 104 81 74 59
191 186 187 180 181 203 174 182 172 176 173 174 177 183 173 187 175 195 186 188 190 177 175 207 197 204 202 218 236 239 229 246 206 226 120 149 144 136 129 108 104 83 60
226 207 187 189 192 189 187 182 182 183 183 179 177 184 180 193 182 186 189 190 193 169 188 189 202 195 198 210 220 226 223 236 225 282 147 156 155 141 142 128 117 101 61
231 226 219 191 190 185 195 183 182 190 179 183 181 181 192 198 181 185 179 197 190 192 187 190 185 185 206 211 211 231 223 216 209 190 161 149 159 148 155 130 127 108 27
222 226 222 197 194 195 192 184 188 182 185 188 186 182 195 200 180 190 187 192 190 190 191 199 185 199 209 217 223 196 214 208 177 199 225 191 154 155 148 164 163 74 351
233 207 221 221 191 200 197 184 190 182 192 190 187 178 192 198 182 200 185 191 179 191 195 192 200 198 211 209 193 205 191 195 204 210 241 232 225 159 164 164 187 286 310
224 224 214 214 218 194 204 193 192 181 197 190 187 180 185 199 189 198 191 185 175 191 195 199 203 215 192 217 174 190 219 247 223 246 276 239 201 260 309 132 158 199 357
219 212 220 217 218 204 194 200 186 186 193 192 190 184 179 201 194 199 187 176 194 193 192 201 209 200 210 189 194 149 346 298 258 262 226 239 226 247 247 290 231 161 129
213 210 213 214 213 211 205 193 172 181 193 190 193 188 180 199 194 190 186 187 200 200 200 184 187 177 170 165 172 186 144 174 212 257 238 256 216 230 299 270 269 334 165
208 211 206 213 211 211 197 199 184 190 200 194 190 188 188 184 194 186 200 189 194 188 183 186 187 179 187 182 234 262 230 178 162 11 297 248 310 285 267 262 331 357 314
203 205 201 206 202 205 207 197 181 180 205 190 190 188 191 188 180 207 196 202 183 203 182 187 188 198 184 185 253 283 249 261 111 159 208 324 293 311 327 113 19 14 1
220 201 209 201 202 197 199 187 193 182 191 197 192 182 175 186 193 188 194 204 197 204 172 188 185 203 233 179 198 234 293 336 251 185 193 140 153 121 7 59 78 73 359
218 212 205 202 200 202 194 204 195 209 203 188 192 176 188 185 190 196 195 198 197 210 175 181 182 206 184 243 229 187 200 211 265 291 278 160 180 117 58 63 355 353 1
223 225 213 204 208 205 196 195 206 203 211 188 192 184 189 176 185 195 196 197 197 199 176 169 184 174 170 168 179 176 107 230 226 263 283 278 326 133 77 2 352 1 353